{"data":{"norad_id":52309,"intl_designator":"2022-041BA","name":"STARLINK-3756","alt_names":[],"object_type":"PAYLOAD","status":"ACTIVE","operator":null,"country":"US","launch_date":"2022-04-21","launch_site_code":"AFETR","launch_vehicle":null,"mission":null,"orbit_class":"UNKNOWN","rcs_meters":null,"size_class":null,"mass_kg":null,"dimensions":null,"purposes":["comms"],"wikipedia_slug":null,"has_3d_model":false,"image_url":null,"decayed_at":null,"tle_current":{"epoch":"2026-05-25T03:27:01.620000Z","epoch_age_seconds":69524,"freshness":"FRESH","line1":"1 52309U 22041BA  26145.14376875  .00000313  00000+0  37764-4 0  9994","line2":"2 52309  53.2138 105.9009 0000937  63.6918 296.4170 15.08851342227400","mean_motion":15.08851342,"eccentricity":9.37e-5,"inclination_deg":53.2138,"raan_deg":105.9009,"arg_perigee_deg":63.6918,"mean_anomaly_deg":296.417,"bstar":3.7764e-5,"rev_number":22740,"period_min":95.436837275915,"perigee_km":539.06051908063,"apogee_km":540.35692336879,"semimajor_km":6917.8457212247,"source":"CELESTRAK","updated_at":"2026-05-25T13:38:17.110805Z"}}}